Year,Month,Day,Hour,Minute,Value (Times are PST for temperature in C)
2020,01,14,00,00,-6.10
2020,01,14,00,01,-6.10
2020,01,14,00,02,-6.10
2020,01,14,00,03,-6.10
2020,01,14,00,04,-6.10
2020,01,14,00,05,-6.10
2020,01,14,00,06,-6.10
2020,01,14,00,07,-6.10
2020,01,14,00,08,-6.10
2020,01,14,00,09,-6.10
2020,01,14,00,10,-6.10
2020,01,14,00,11,-6.10
2020,01,14,00,12,-6.10
2020,01,14,00,13,-6.10
2020,01,14,00,14,-6.10
2020,01,14,00,15,-6.10
2020,01,14,00,16,-6.10
2020,01,14,00,17,-6.10
2020,01,14,00,18,-6.10
2020,01,14,00,19,-6.10
2020,01,14,00,20,-6.10
2020,01,14,00,21,-6.20
2020,01,14,00,22,-6.10
2020,01,14,00,23,-6.10
2020,01,14,00,24,-6.10
2020,01,14,00,25,-6.10
2020,01,14,00,26,-6.10
2020,01,14,00,27,-6.10
2020,01,14,00,28,-6.10
2020,01,14,00,29,-6.10
2020,01,14,00,30,-6.10
2020,01,14,00,31,-6.10
2020,01,14,00,32,-6.20
2020,01,14,00,33,-6.10
2020,01,14,00,34,-6.10
2020,01,14,00,35,-6.10
2020,01,14,00,36,-6.10
2020,01,14,00,37,-6.10
2020,01,14,00,38,-6.10
2020,01,14,00,39,-6.10
2020,01,14,00,40,-6.10
2020,01,14,00,41,-6.10
2020,01,14,00,42,-6.10
2020,01,14,00,43,-6.10
2020,01,14,00,44,-6.10
2020,01,14,00,45,-6.10
2020,01,14,00,46,-6.10
2020,01,14,00,47,-6.10
2020,01,14,00,48,-6.10
2020,01,14,00,49,-6.10
2020,01,14,00,50,-6.10
2020,01,14,00,51,-6.10
2020,01,14,00,52,-6.10
2020,01,14,00,53,-6.10
2020,01,14,00,54,-6.10
2020,01,14,00,55,-6.10
2020,01,14,00,56,-6.10
2020,01,14,00,57,-6.10
2020,01,14,00,58,-6.10
2020,01,14,00,59,-6.10
2020,01,14,01,00,-6.10
2020,01,14,01,01,-6.10
2020,01,14,01,02,-6.10
2020,01,14,01,03,-6.10
2020,01,14,01,04,-6.10
2020,01,14,01,05,-6.10
2020,01,14,01,06,-6.10
2020,01,14,01,07,-6.10
2020,01,14,01,08,-6.10
2020,01,14,01,09,-6.10
2020,01,14,01,10,-6.10
2020,01,14,01,11,-6.10
2020,01,14,01,12,-6.10
2020,01,14,01,13,-6.10
2020,01,14,01,14,-6.10
2020,01,14,01,15,-6.10
2020,01,14,01,16,-6.10
2020,01,14,01,17,-6.10
2020,01,14,01,18,-6.10
2020,01,14,01,19,-6.10
2020,01,14,01,20,-6.10
2020,01,14,01,21,-6.10
2020,01,14,01,22,-6.10
2020,01,14,01,23,-6.10
2020,01,14,01,24,-6.10
2020,01,14,01,25,-6.10
2020,01,14,01,26,-6.10
2020,01,14,01,27,-6.10
2020,01,14,01,28,-6.10
2020,01,14,01,29,-6.10
2020,01,14,01,30,-6.10
2020,01,14,01,31,-6.10
2020,01,14,01,32,-6.10
2020,01,14,01,33,-6.10
2020,01,14,01,34,-6.10
2020,01,14,01,35,-6.10
2020,01,14,01,36,-6.10
2020,01,14,01,37,-6.10
2020,01,14,01,38,-6.10
2020,01,14,01,39,-6.10
2020,01,14,01,40,-6.10
2020,01,14,01,41,-6.10
2020,01,14,01,42,-6.10
2020,01,14,01,43,-6.10
2020,01,14,01,44,-6.10
2020,01,14,01,45,-6.10
2020,01,14,01,46,-6.10
2020,01,14,01,47,-6.10
2020,01,14,01,48,-6.10
2020,01,14,01,49,-6.10
2020,01,14,01,50,-6.10
2020,01,14,01,51,-6.10
2020,01,14,01,52,-6.10
2020,01,14,01,53,-6.10
2020,01,14,01,54,-6.10
2020,01,14,01,55,-6.10
2020,01,14,01,56,-6.10
2020,01,14,01,57,-6.10
2020,01,14,01,58,-6.10
2020,01,14,01,59,-6.10
2020,01,14,02,00,-6.10
2020,01,14,02,01,-6.10
2020,01,14,02,02,-6.10
2020,01,14,02,03,-6.10
2020,01,14,02,04,-6.10
2020,01,14,02,05,-6.10
2020,01,14,02,06,-6.10
2020,01,14,02,07,-6.10
2020,01,14,02,08,-6.10
2020,01,14,02,09,-6.10
2020,01,14,02,10,-6.10
2020,01,14,02,11,-6.10
2020,01,14,02,12,-6.00
2020,01,14,02,13,-6.00
2020,01,14,02,14,-6.00
2020,01,14,02,15,-6.00
2020,01,14,02,16,-6.00
2020,01,14,02,17,-6.00
2020,01,14,02,18,-6.00
2020,01,14,02,19,-6.00
2020,01,14,02,20,-6.00
2020,01,14,02,21,-6.00
2020,01,14,02,22,-6.00
2020,01,14,02,23,-6.00
2020,01,14,02,24,-6.00
2020,01,14,02,25,-6.00
2020,01,14,02,26,-6.00
2020,01,14,02,27,-6.00
2020,01,14,02,28,-6.00
2020,01,14,02,29,-6.00
2020,01,14,02,30,-6.00
2020,01,14,02,31,-6.00
2020,01,14,02,32,-6.00
2020,01,14,02,33,-6.00
2020,01,14,02,34,-6.00
2020,01,14,02,35,-6.00
2020,01,14,02,36,-6.00
2020,01,14,02,37,-6.00
2020,01,14,02,38,-6.00
2020,01,14,02,39,-6.00
2020,01,14,02,40,-6.00
2020,01,14,02,41,-6.00
2020,01,14,02,42,-6.00
2020,01,14,02,43,-6.00
2020,01,14,02,44,-6.00
2020,01,14,02,45,-6.00
2020,01,14,02,46,-6.00
2020,01,14,02,47,-6.00
2020,01,14,02,48,-6.00
2020,01,14,02,49,-6.00
2020,01,14,02,50,-6.00
2020,01,14,02,51,-6.00
2020,01,14,02,52,-6.00
2020,01,14,02,53,-6.00
2020,01,14,02,54,-6.00
2020,01,14,02,55,-6.10
2020,01,14,02,56,-6.10
2020,01,14,02,57,-6.10
2020,01,14,02,58,-6.10
2020,01,14,02,59,-6.10
2020,01,14,03,00,-6.10
2020,01,14,03,01,-6.10
2020,01,14,03,02,-6.10
2020,01,14,03,03,-6.10
2020,01,14,03,04,-6.10
2020,01,14,03,05,-6.10
2020,01,14,03,06,-6.10
2020,01,14,03,07,-6.10
2020,01,14,03,08,-6.10
2020,01,14,03,09,-6.10
2020,01,14,03,10,-6.10
2020,01,14,03,11,-6.10
2020,01,14,03,12,-6.10
2020,01,14,03,13,-6.10
2020,01,14,03,14,-6.10
2020,01,14,03,15,-6.10
2020,01,14,03,16,-6.10
2020,01,14,03,17,-6.10
2020,01,14,03,18,-6.10
2020,01,14,03,19,-6.10
2020,01,14,03,20,-6.10
2020,01,14,03,21,-6.10
2020,01,14,03,22,-6.10
2020,01,14,03,23,-6.10
2020,01,14,03,24,-6.10
2020,01,14,03,25,-6.10
2020,01,14,03,26,-6.10
2020,01,14,03,27,-6.10
2020,01,14,03,28,-6.10
2020,01,14,03,29,-6.10
2020,01,14,03,30,-6.10
2020,01,14,03,31,-6.10
2020,01,14,03,32,-6.10
2020,01,14,03,33,-6.10
2020,01,14,03,34,-6.10
2020,01,14,03,35,-6.10
2020,01,14,03,36,-6.10
2020,01,14,03,37,-6.10
2020,01,14,03,38,-6.10
2020,01,14,03,39,-6.10
2020,01,14,03,40,-6.10
2020,01,14,03,41,-6.10
2020,01,14,03,42,-6.10
2020,01,14,03,43,-6.10
2020,01,14,03,44,-6.10
2020,01,14,03,45,-6.10
2020,01,14,03,46,-6.10
2020,01,14,03,47,-6.10
2020,01,14,03,48,-6.20
2020,01,14,03,49,-6.20
2020,01,14,03,50,-6.20
2020,01,14,03,51,-6.20
2020,01,14,03,52,-6.20
2020,01,14,03,53,-6.20
2020,01,14,03,54,-6.20
2020,01,14,03,55,-6.20
2020,01,14,03,56,-6.20
2020,01,14,03,57,-6.20
2020,01,14,03,58,-6.20
2020,01,14,03,59,-6.20
2020,01,14,04,00,-6.20
2020,01,14,04,01,-6.20
2020,01,14,04,02,-6.20
2020,01,14,04,03,-6.20
2020,01,14,04,04,-6.20
2020,01,14,04,05,-6.20
2020,01,14,04,06,-6.20
2020,01,14,04,07,-6.20
2020,01,14,04,08,-6.20
2020,01,14,04,09,-6.20
2020,01,14,04,10,-6.20
2020,01,14,04,11,-6.20
2020,01,14,04,12,-6.20
2020,01,14,04,13,-6.20
2020,01,14,04,14,-6.20
2020,01,14,04,15,-6.20
2020,01,14,04,16,-6.20
2020,01,14,04,17,-6.20
2020,01,14,04,18,-6.20
2020,01,14,04,19,-6.20
2020,01,14,04,20,-6.20
2020,01,14,04,21,-6.20
2020,01,14,04,22,-6.20
2020,01,14,04,23,-6.20
2020,01,14,04,24,-6.20
2020,01,14,04,25,-6.20
2020,01,14,04,26,-6.20
2020,01,14,04,27,-6.20
2020,01,14,04,28,-6.20
2020,01,14,04,29,-6.20
2020,01,14,04,30,-6.20
2020,01,14,04,31,-6.20
2020,01,14,04,32,-6.20
2020,01,14,04,33,-6.20
2020,01,14,09,54,-6.20
2020,01,14,09,55,-6.20
2020,01,14,09,56,-6.20
2020,01,14,09,57,-6.20
2020,01,14,09,58,-6.20
2020,01,14,09,59,-6.20
2020,01,14,10,00,-6.20
2020,01,14,10,01,-6.20
2020,01,14,10,02,-6.20
2020,01,14,10,03,-6.20
2020,01,14,10,04,-6.20
2020,01,14,10,05,-6.10
2020,01,14,10,06,-6.10
2020,01,14,10,07,-6.20
2020,01,14,10,08,-6.20
2020,01,14,10,09,-6.20
2020,01,14,10,10,-6.20
2020,01,14,10,11,-6.20
2020,01,14,10,12,-6.20
2020,01,14,10,13,-6.20
2020,01,14,10,14,-6.10
2020,01,14,10,15,-6.10
2020,01,14,10,16,-6.10
2020,01,14,10,17,-6.10
2020,01,14,10,18,-6.10
2020,01,14,10,19,-6.10
2020,01,14,10,20,-6.10
2020,01,14,10,21,-6.10
2020,01,14,10,22,-6.10
2020,01,14,10,23,-6.10
2020,01,14,10,24,-6.10
2020,01,14,10,25,-6.10
2020,01,14,10,26,-6.10
2020,01,14,10,27,-6.10
2020,01,14,10,28,-6.10
2020,01,14,10,29,-6.10
2020,01,14,10,30,-6.10
2020,01,14,10,31,-6.10
2020,01,14,10,32,-6.10
2020,01,14,10,33,-6.10
2020,01,14,10,34,-6.10
2020,01,14,10,35,-6.10
2020,01,14,10,36,-6.10
2020,01,14,10,37,-6.20
2020,01,14,10,38,-6.20
2020,01,14,10,39,-6.20
2020,01,14,10,40,-6.20
2020,01,14,10,41,-6.20
2020,01,14,10,42,-6.20
2020,01,14,10,43,-6.20
2020,01,14,10,44,-6.20
2020,01,14,10,45,-6.20
2020,01,14,10,46,-6.20
2020,01,14,10,47,-6.10
2020,01,14,10,48,-6.10
2020,01,14,10,49,-6.10
2020,01,14,10,50,-6.10
2020,01,14,10,51,-6.10
2020,01,14,10,52,-6.10
2020,01,14,10,53,-6.10
2020,01,14,10,54,-6.10
2020,01,14,10,55,-6.10
2020,01,14,10,56,-6.00
2020,01,14,10,57,-6.00
2020,01,14,10,58,-5.90
2020,01,14,10,59,-5.90
2020,01,14,11,00,-5.90
2020,01,14,11,01,-5.80
2020,01,14,11,02,-5.80
2020,01,14,11,03,-5.80
2020,01,14,11,04,-5.80
2020,01,14,11,05,-5.80
2020,01,14,11,06,-5.80
2020,01,14,11,07,-5.80
2020,01,14,11,08,-5.80
2020,01,14,11,09,-5.70
2020,01,14,11,10,-5.70
2020,01,14,11,11,-5.70
2020,01,14,11,12,-5.70
2020,01,14,11,13,-5.70
2020,01,14,11,14,-5.70
2020,01,14,11,15,-5.70
2020,01,14,11,16,-5.70
2020,01,14,11,17,-5.70
2020,01,14,11,18,-5.70
2020,01,14,11,19,-5.70
2020,01,14,11,20,-5.70
2020,01,14,11,21,-5.70
2020,01,14,11,22,-5.70
2020,01,14,11,23,-5.70
2020,01,14,11,24,-5.70
2020,01,14,11,25,-5.70
2020,01,14,11,26,-5.70
2020,01,14,11,27,-5.70
2020,01,14,11,28,-5.70
2020,01,14,11,29,-5.70
2020,01,14,11,30,-5.70
2020,01,14,11,31,-5.80
2020,01,14,11,32,-5.80
2020,01,14,11,33,-5.80
2020,01,14,11,34,-5.80
2020,01,14,11,35,-5.80
2020,01,14,11,36,-5.80
2020,01,14,11,37,-5.80
2020,01,14,11,38,-5.70
2020,01,14,11,39,-5.70
2020,01,14,11,40,-5.70
2020,01,14,11,41,-5.60
2020,01,14,11,42,-5.50
2020,01,14,11,43,-5.50
2020,01,14,11,44,-5.50
2020,01,14,11,45,-5.50
2020,01,14,11,46,-5.40
2020,01,14,11,47,-5.40
2020,01,14,11,48,-5.40
2020,01,14,11,49,-5.50
2020,01,14,11,50,-5.50
2020,01,14,11,51,-5.50
2020,01,14,11,52,-5.50
2020,01,14,11,53,-5.50
2020,01,14,11,54,-5.50
2020,01,14,11,55,-5.50
2020,01,14,11,56,-5.50
2020,01,14,11,57,-5.50
2020,01,14,11,58,-5.50
2020,01,14,11,59,-5.50
2020,01,14,12,00,-5.50
2020,01,14,12,01,-5.50
2020,01,14,12,02,-5.50
2020,01,14,12,03,-5.50
2020,01,14,12,04,-5.50
2020,01,14,12,05,-5.50
2020,01,14,12,06,-5.50
2020,01,14,12,07,-5.50
2020,01,14,12,08,-5.50
2020,01,14,12,09,-5.50
2020,01,14,12,10,-5.50
2020,01,14,12,11,-5.60
2020,01,14,12,12,-5.60
2020,01,14,12,13,-5.60
2020,01,14,12,14,-5.60
2020,01,14,12,15,-5.70
2020,01,14,12,16,-5.70
2020,01,14,12,17,-5.70
2020,01,14,12,18,-5.70
2020,01,14,12,19,-5.70
2020,01,14,12,20,-5.70
2020,01,14,12,21,-5.70
2020,01,14,12,22,-5.70
2020,01,14,12,23,-5.70
2020,01,14,12,24,-5.70
2020,01,14,12,25,-5.70
2020,01,14,12,26,-5.70
2020,01,14,12,27,-5.60
2020,01,14,12,28,-5.60
2020,01,14,12,29,-5.50
2020,01,14,12,30,-5.50
2020,01,14,12,31,-5.40
2020,01,14,12,32,-5.40
2020,01,14,12,33,-5.30
2020,01,14,12,34,-5.30
2020,01,14,12,35,-5.20
2020,01,14,12,36,-5.20
2020,01,14,12,37,-5.20
2020,01,14,12,38,-5.20
2020,01,14,12,39,-5.10
2020,01,14,12,40,-5.10
2020,01,14,12,41,-5.00
2020,01,14,12,42,-5.00
2020,01,14,12,43,-5.00
2020,01,14,12,44,-5.00
2020,01,14,12,45,-5.00
2020,01,14,12,46,-5.00
2020,01,14,12,47,-5.10
2020,01,14,12,48,-5.10
2020,01,14,12,49,-5.20
2020,01,14,12,50,-5.30
2020,01,14,12,51,-5.30
2020,01,14,12,52,-5.40
2020,01,14,12,53,-5.40
2020,01,14,12,54,-5.50
2020,01,14,12,55,-5.50
2020,01,14,12,56,-5.50
2020,01,14,12,57,-5.50
2020,01,14,12,58,-5.50
2020,01,14,12,59,-5.40
2020,01,14,13,00,-5.30
2020,01,14,13,01,-5.30
2020,01,14,13,02,-5.30
2020,01,14,13,03,-5.30
2020,01,14,13,04,-5.20
2020,01,14,13,05,-5.20
2020,01,14,13,06,-5.10
2020,01,14,13,07,-5.10
2020,01,14,13,08,-5.10
2020,01,14,13,09,-5.00
2020,01,14,13,10,-5.00
2020,01,14,13,11,-5.00
2020,01,14,13,12,-4.90
2020,01,14,13,13,-4.90
2020,01,14,13,14,-4.80
2020,01,14,13,15,-4.80
2020,01,14,13,16,-4.70
2020,01,14,13,17,-4.60
2020,01,14,13,18,-4.60
2020,01,14,13,19,-4.50
2020,01,14,13,20,-4.50
2020,01,14,13,21,-4.50
2020,01,14,13,22,-4.60
2020,01,14,13,23,-4.50
2020,01,14,13,24,-4.50
2020,01,14,13,25,-4.60
2020,01,14,13,26,-4.60
2020,01,14,13,27,-4.60
2020,01,14,13,28,-4.70
2020,01,14,13,29,-4.70
2020,01,14,13,30,-4.70
2020,01,14,13,31,-4.70
2020,01,14,13,32,-4.80
2020,01,14,13,33,-4.80
2020,01,14,13,34,-4.90
2020,01,14,13,35,-4.90
2020,01,14,13,36,-4.90
2020,01,14,13,37,-4.90
2020,01,14,13,38,-5.00
2020,01,14,13,39,-5.00
2020,01,14,13,40,-4.90
2020,01,14,13,41,-4.90
2020,01,14,13,42,-4.90
2020,01,14,13,43,-4.90
2020,01,14,13,44,-4.90
2020,01,14,13,45,-4.90
2020,01,14,13,46,-4.90
2020,01,14,13,47,-4.90
2020,01,14,13,48,-4.90
2020,01,14,13,49,-4.80
2020,01,14,13,50,-4.80
2020,01,14,13,51,-4.90
2020,01,14,13,52,-4.90
2020,01,14,13,53,-4.90
2020,01,14,13,54,-4.90
2020,01,14,13,55,-4.90
2020,01,14,13,56,-4.90
2020,01,14,13,57,-4.90
2020,01,14,13,58,-4.90
2020,01,14,13,59,-4.90
2020,01,14,14,00,-4.90
2020,01,14,14,01,-4.90
2020,01,14,14,02,-4.80
2020,01,14,14,03,-4.80
2020,01,14,14,04,-4.80
2020,01,14,14,05,-4.80
2020,01,14,14,06,-4.80
2020,01,14,14,07,-4.80
2020,01,14,14,08,-4.80
2020,01,14,14,09,-4.80
2020,01,14,14,10,-4.80
2020,01,14,14,11,-4.80
2020,01,14,14,12,-4.80
2020,01,14,14,13,-4.80
2020,01,14,14,14,-4.70
2020,01,14,14,15,-4.70
2020,01,14,14,16,-4.70
2020,01,14,14,17,-4.60
2020,01,14,14,18,-4.60
2020,01,14,14,19,-4.50
2020,01,14,14,20,-4.50
2020,01,14,14,21,-4.50
2020,01,14,14,22,-4.50
2020,01,14,14,23,-4.50
2020,01,14,14,24,-4.50
2020,01,14,14,25,-4.60
2020,01,14,14,26,-4.70
2020,01,14,14,27,-4.80
2020,01,14,14,28,-4.80
2020,01,14,14,29,-4.80
2020,01,14,14,30,-4.80
2020,01,14,14,31,-4.80
2020,01,14,14,32,-4.80
2020,01,14,14,33,-4.90
2020,01,14,14,34,-4.90
2020,01,14,14,35,-4.90
2020,01,14,14,36,-4.90
2020,01,14,14,37,-5.00
2020,01,14,14,38,-5.00
2020,01,14,14,39,-5.00
2020,01,14,14,40,-5.00
2020,01,14,14,41,-5.10
2020,01,14,14,42,-5.10
2020,01,14,14,43,-5.10
2020,01,14,14,44,-5.20
2020,01,14,14,45,-5.20
2020,01,14,14,46,-5.20
2020,01,14,14,47,-5.30
2020,01,14,14,48,-5.30
2020,01,14,14,49,-5.30
2020,01,14,14,50,-5.30
2020,01,14,14,51,-5.30
2020,01,14,14,52,-5.30
2020,01,14,14,53,-5.40
2020,01,14,14,54,-5.40
2020,01,14,14,55,-5.40
2020,01,14,14,56,-5.40
2020,01,14,14,57,-5.40
2020,01,14,14,58,-5.40
2020,01,14,14,59,-5.40
2020,01,14,15,00,-5.40
2020,01,14,15,01,-5.40
2020,01,14,15,02,-5.40
2020,01,14,15,03,-5.40
2020,01,14,15,04,-5.50
2020,01,14,15,05,-5.50
2020,01,14,15,06,-5.40
2020,01,14,15,07,-5.40
2020,01,14,15,08,-5.40
2020,01,14,15,09,-5.40
2020,01,14,15,10,-5.40
2020,01,14,15,11,-5.40
2020,01,14,15,12,-5.40
2020,01,14,15,13,-5.50
2020,01,14,15,14,-5.50
2020,01,14,15,15,-5.50
2020,01,14,15,16,-5.50
2020,01,14,15,17,-5.40
2020,01,14,15,18,-5.40
2020,01,14,15,19,-5.40
2020,01,14,15,20,-5.40
2020,01,14,15,21,-5.50
2020,01,14,15,22,-5.50
2020,01,14,15,23,-5.50
2020,01,14,15,24,-5.50
2020,01,14,15,25,-5.50
2020,01,14,15,26,-5.50
2020,01,14,15,27,-5.50
2020,01,14,15,28,-5.50
2020,01,14,15,29,-5.50
2020,01,14,15,30,-5.50
2020,01,14,15,31,-5.50
2020,01,14,15,32,-5.50
2020,01,14,15,33,-5.60
2020,01,14,15,34,-5.60
2020,01,14,15,35,-5.60
2020,01,14,15,36,-5.50
2020,01,14,15,37,-5.50
2020,01,14,15,38,-5.50
2020,01,14,15,39,-5.50
2020,01,14,15,40,-5.50
2020,01,14,15,41,-5.50
2020,01,14,15,42,-5.50
2020,01,14,15,43,-5.50
2020,01,14,15,44,-5.60
2020,01,14,15,45,-5.60
2020,01,14,15,46,-5.60
2020,01,14,15,47,-5.60
2020,01,14,15,48,-5.60
2020,01,14,15,49,-5.60
2020,01,14,15,50,-5.60
2020,01,14,15,51,-5.60
2020,01,14,15,52,-5.60
2020,01,14,15,53,-5.60
2020,01,14,15,54,-5.60
2020,01,14,15,55,-5.60
2020,01,14,15,56,-5.60
2020,01,14,15,57,-5.60
2020,01,14,15,58,-5.60
2020,01,14,15,59,-5.60
2020,01,14,16,00,-5.60
2020,01,14,16,01,-5.60
2020,01,14,16,02,-5.60
2020,01,14,16,03,-5.60
2020,01,14,16,04,-5.60
2020,01,14,16,05,-5.60
2020,01,14,16,06,-5.60
2020,01,14,16,07,-5.60
2020,01,14,16,08,-5.60
2020,01,14,16,09,-5.60
2020,01,14,16,10,-5.60
2020,01,14,16,11,-5.60
2020,01,14,16,12,-5.60
2020,01,14,16,13,-5.60
2020,01,14,16,14,-5.70
2020,01,14,16,15,-5.70
2020,01,14,16,16,-5.70
2020,01,14,16,17,-5.70
2020,01,14,16,18,-5.70
2020,01,14,16,19,-5.70
2020,01,14,16,20,-5.70
2020,01,14,16,21,-5.70
2020,01,14,16,22,-5.70
2020,01,14,16,23,-5.70
2020,01,14,16,24,-5.70
2020,01,14,16,25,-5.70
2020,01,14,16,26,-5.70
2020,01,14,16,27,-5.70
2020,01,14,16,28,-5.70
2020,01,14,16,29,-5.70
2020,01,14,16,30,-5.70
2020,01,14,16,31,-5.70
2020,01,14,16,32,-5.70
2020,01,14,16,33,-5.70
2020,01,14,16,34,-5.70
2020,01,14,16,35,-5.70
2020,01,14,16,36,-5.70
2020,01,14,16,37,-5.70
2020,01,14,16,38,-5.70
2020,01,14,16,39,-5.70
2020,01,14,16,40,-5.70
2020,01,14,16,41,-5.70
2020,01,14,16,42,-5.70
2020,01,14,16,43,-5.80
2020,01,14,16,44,-5.80
2020,01,14,16,45,-5.80
2020,01,14,16,46,-5.80
2020,01,14,16,47,-5.80
2020,01,14,16,48,-5.80
2020,01,14,16,49,-5.80
2020,01,14,16,50,-5.80
2020,01,14,16,51,-5.80
2020,01,14,16,52,-5.80
2020,01,14,16,53,-5.80
2020,01,14,16,54,-5.80
2020,01,14,16,55,-5.80
2020,01,14,16,56,-5.80
2020,01,14,16,57,-5.80
2020,01,14,16,58,-5.80
2020,01,14,16,59,-5.80
2020,01,14,17,00,-5.80
2020,01,14,17,01,-5.80
2020,01,14,17,02,-5.80
2020,01,14,17,03,-5.80
2020,01,14,17,04,-5.80
2020,01,14,17,05,-5.80
2020,01,14,17,06,-5.80
2020,01,14,17,07,-5.80
2020,01,14,17,08,-5.80
2020,01,14,17,09,-5.80
2020,01,14,17,10,-5.80
2020,01,14,17,11,-5.80
2020,01,14,17,12,-5.80
2020,01,14,17,13,-5.80
2020,01,14,17,14,-5.80
2020,01,14,17,15,-5.80
2020,01,14,17,16,-5.80
2020,01,14,17,17,-5.90
2020,01,14,17,18,-5.90
2020,01,14,17,19,-5.90
2020,01,14,17,20,-5.90
2020,01,14,17,21,-5.90
2020,01,14,17,22,-5.90
2020,01,14,17,23,-5.90
2020,01,14,17,24,-5.90
2020,01,14,17,25,-5.90
2020,01,14,17,26,-5.90
2020,01,14,17,27,-5.90
2020,01,14,17,28,-5.90
2020,01,14,17,29,-5.90
2020,01,14,17,30,-5.90
2020,01,14,17,31,-5.90
2020,01,14,17,32,-5.90
2020,01,14,17,33,-5.90
2020,01,14,17,34,-5.90
2020,01,14,17,35,-5.90
2020,01,14,17,36,-5.90
2020,01,14,17,37,-5.90
2020,01,14,17,38,-5.90
2020,01,14,17,39,-5.90
2020,01,14,17,40,-5.90
2020,01,14,17,41,-5.90
2020,01,14,17,42,-5.90
2020,01,14,17,43,-5.90
2020,01,14,17,44,-5.90
2020,01,14,17,45,-5.90
2020,01,14,17,46,-5.90
2020,01,14,17,47,-5.90
2020,01,14,17,48,-5.90
2020,01,14,17,49,-5.90
2020,01,14,17,50,-5.90
2020,01,14,17,51,-5.90
2020,01,14,17,52,-5.90
2020,01,14,17,53,-5.90
2020,01,14,17,54,-5.90
2020,01,14,17,55,-5.90
2020,01,14,17,56,-5.90
2020,01,14,17,57,-5.90
2020,01,14,17,58,-5.90
2020,01,14,17,59,-5.90
2020,01,14,18,00,-5.90
2020,01,14,18,01,-5.90
2020,01,14,18,02,-5.90
2020,01,14,18,03,-5.90
2020,01,14,18,04,-5.90
2020,01,14,18,05,-5.90
2020,01,14,18,06,-5.90
2020,01,14,18,07,-5.90
2020,01,14,18,08,-5.90
2020,01,14,18,09,-5.90
2020,01,14,18,10,-5.90
2020,01,14,18,11,-5.90
2020,01,14,18,12,-5.90
2020,01,14,18,13,-5.90
2020,01,14,18,14,-5.90
2020,01,14,18,15,-5.90
2020,01,14,18,16,-5.90
2020,01,14,18,17,-5.90
2020,01,14,18,18,-5.90
2020,01,14,18,19,-5.90
2020,01,14,18,20,-5.90
2020,01,14,18,21,-5.90
2020,01,14,18,22,-5.90
2020,01,14,18,23,-5.90
2020,01,14,18,24,-5.90
2020,01,14,18,25,-5.90
2020,01,14,18,26,-5.90
2020,01,14,18,27,-5.90
2020,01,14,18,28,-5.90
2020,01,14,18,29,-5.90
2020,01,14,18,30,-5.90
2020,01,14,18,31,-5.90
2020,01,14,18,32,-5.90
2020,01,14,18,33,-5.90
2020,01,14,18,34,-5.90
2020,01,14,18,35,-5.90
2020,01,14,18,36,-6.00
2020,01,14,18,37,-6.00
2020,01,14,18,38,-6.00
2020,01,14,18,39,-6.00
2020,01,14,18,40,-6.00
2020,01,14,18,41,-6.00
2020,01,14,18,42,-5.90
2020,01,14,18,43,-5.90
2020,01,14,18,44,-6.00
2020,01,14,18,45,-5.90
2020,01,14,18,46,-5.90
2020,01,14,18,47,-6.00
2020,01,14,18,48,-6.00
2020,01,14,18,49,-6.00
2020,01,14,18,50,-6.00
2020,01,14,18,51,-6.00
2020,01,14,18,52,-6.00
2020,01,14,18,53,-6.00
2020,01,14,18,54,-6.10
2020,01,14,18,55,-6.10
2020,01,14,18,56,-6.10
2020,01,14,18,57,-6.10
2020,01,14,18,58,-6.10
2020,01,14,18,59,-6.10
2020,01,14,19,00,-6.10
2020,01,14,19,01,-6.10
2020,01,14,19,02,-6.10
2020,01,14,19,03,-6.10
2020,01,14,19,04,-6.10
2020,01,14,19,05,-6.10
2020,01,14,19,06,-6.10
2020,01,14,19,07,-6.10
2020,01,14,19,08,-6.10
2020,01,14,19,09,-6.10
2020,01,14,19,10,-6.10
2020,01,14,19,11,-6.10
2020,01,14,19,12,-6.10
2020,01,14,19,13,-6.10
2020,01,14,19,14,-6.10
2020,01,14,19,15,-6.10
2020,01,14,19,16,-6.10
2020,01,14,19,17,-6.20
2020,01,14,19,18,-6.20
2020,01,14,19,19,-6.10
2020,01,14,19,20,-6.20
2020,01,14,19,21,-6.20
2020,01,14,19,22,-6.10
2020,01,14,19,23,-6.20
2020,01,14,19,24,-6.20
2020,01,14,19,25,-6.20
2020,01,14,19,26,-6.10
2020,01,14,19,27,-6.20
2020,01,14,19,28,-6.20
2020,01,14,19,29,-6.20
2020,01,14,19,30,-6.20
2020,01,14,19,31,-6.20
2020,01,14,19,32,-6.20
2020,01,14,19,33,-6.10
2020,01,14,19,34,-6.10
2020,01,14,19,35,-6.20
2020,01,14,19,36,-6.20
2020,01,14,19,37,-6.10
2020,01,14,19,38,-6.10
2020,01,14,19,39,-6.10
2020,01,14,19,40,-6.10
2020,01,14,19,41,-6.10
2020,01,14,19,42,-6.20
2020,01,14,19,43,-6.20
2020,01,14,19,44,-6.20
2020,01,14,19,45,-6.20
2020,01,14,19,46,-6.20
2020,01,14,19,47,-6.20
2020,01,14,19,48,-6.20
2020,01,14,19,49,-6.20
2020,01,14,19,50,-6.20
2020,01,14,19,51,-6.20
2020,01,14,19,52,-6.20
2020,01,14,19,53,-6.10
2020,01,14,19,54,-6.10
2020,01,14,19,55,-6.20
2020,01,14,19,56,-6.20
2020,01,14,19,57,-6.20
2020,01,14,19,58,-6.20
2020,01,14,19,59,-6.20
2020,01,14,20,00,-6.20
2020,01,14,20,01,-6.20
2020,01,14,20,02,-6.20
2020,01,14,20,03,-6.20
2020,01,14,20,04,-6.20
2020,01,14,20,05,-6.20
2020,01,14,20,06,-6.20
2020,01,14,20,07,-6.20
2020,01,14,20,08,-6.20
2020,01,14,20,09,-6.20
2020,01,14,20,10,-6.20
2020,01,14,20,11,-6.20
2020,01,14,20,12,-6.20
2020,01,14,20,13,-6.20
2020,01,14,20,14,-6.20
2020,01,14,20,15,-6.20
2020,01,14,20,16,-6.20
2020,01,14,20,17,-6.20
2020,01,14,20,18,-6.20
2020,01,14,20,19,-6.20
2020,01,14,20,20,-6.20
2020,01,14,20,21,-6.20
2020,01,14,20,22,-6.20
2020,01,14,20,23,-6.20
2020,01,14,20,24,-6.20
2020,01,14,20,25,-6.20
2020,01,14,20,26,-6.20
2020,01,14,20,27,-6.20
2020,01,14,20,28,-6.20
2020,01,14,20,29,-6.30
2020,01,14,20,30,-6.30
2020,01,14,20,31,-6.30
2020,01,14,20,32,-6.30
2020,01,14,20,33,-6.30
2020,01,14,20,34,-6.20
2020,01,14,20,35,-6.20
2020,01,14,20,36,-6.20
2020,01,14,20,37,-6.30
2020,01,14,20,38,-6.30
2020,01,14,20,39,-6.20
2020,01,14,20,40,-6.30
2020,01,14,20,41,-6.30
2020,01,14,20,42,-6.30
2020,01,14,20,43,-6.30
2020,01,14,20,44,-6.20
2020,01,14,20,45,-6.20
2020,01,14,20,46,-6.20
2020,01,14,20,47,-6.20
2020,01,14,20,48,-6.20
2020,01,14,20,49,-6.20
2020,01,14,20,50,-6.20
2020,01,14,20,51,-6.20
2020,01,14,20,52,-6.20
2020,01,14,20,53,-6.20
2020,01,14,20,54,-6.20
2020,01,14,20,55,-6.20
2020,01,14,20,56,-6.20
2020,01,14,20,57,-6.20
2020,01,14,20,58,-6.20
2020,01,14,20,59,-6.30
2020,01,14,21,00,-6.30
2020,01,14,21,01,-6.30
2020,01,14,21,02,-6.30
2020,01,14,21,03,-6.30
2020,01,14,21,04,-6.30
2020,01,14,21,05,-6.30
2020,01,14,21,06,-6.30
2020,01,14,21,07,-6.30
2020,01,14,21,08,-6.30
2020,01,14,21,09,-6.30
2020,01,14,21,10,-6.30
2020,01,14,21,11,-6.30
2020,01,14,21,12,-6.30
2020,01,14,21,13,-6.30
2020,01,14,21,14,-6.30
2020,01,14,21,15,-6.30
2020,01,14,21,16,-6.30
2020,01,14,21,17,-6.30
2020,01,14,21,18,-6.30
2020,01,14,21,19,-6.30
2020,01,14,21,20,-6.30
2020,01,14,21,21,-6.30
2020,01,14,21,22,-6.20
2020,01,14,21,23,-6.20
2020,01,14,21,24,-6.20
2020,01,14,21,25,-6.20
2020,01,14,21,26,-6.20
2020,01,14,21,27,-6.20
2020,01,14,21,28,-6.20
2020,01,14,21,29,-6.20
2020,01,14,21,30,-6.20
2020,01,14,21,31,-6.20
2020,01,14,21,32,-6.20
2020,01,14,21,33,-6.20
2020,01,14,21,34,-6.20
2020,01,14,21,35,-6.20
2020,01,14,21,36,-6.20
2020,01,14,21,37,-6.20
2020,01,14,21,38,-6.20
2020,01,14,21,39,-6.20
2020,01,14,21,40,-6.20
2020,01,14,21,41,-6.20
2020,01,14,21,42,-6.20
2020,01,14,21,43,-6.20
2020,01,14,21,44,-6.20
2020,01,14,21,45,-6.20
2020,01,14,21,46,-6.20
2020,01,14,21,47,-6.20
2020,01,14,21,48,-6.20
2020,01,14,21,49,-6.20
2020,01,14,21,50,-6.20
2020,01,14,21,51,-6.20
2020,01,14,21,52,-6.20
2020,01,14,21,53,-6.20
2020,01,14,21,54,-6.20
2020,01,14,21,55,-6.20
2020,01,14,21,56,-6.20
2020,01,14,21,57,-6.20
2020,01,14,21,58,-6.20
2020,01,14,21,59,-6.20
2020,01,14,22,00,-6.20
2020,01,14,22,01,-6.20
2020,01,14,22,02,-6.10
2020,01,14,22,03,-6.10
2020,01,14,22,04,-6.10
2020,01,14,22,05,-6.20
2020,01,14,22,06,-6.10
2020,01,14,22,07,-6.10
2020,01,14,22,08,-6.10
2020,01,14,22,09,-6.10
2020,01,14,22,10,-6.10
2020,01,14,22,11,-6.10
2020,01,14,22,12,-6.10
2020,01,14,22,13,-6.10
2020,01,14,22,14,-6.10
2020,01,14,22,15,-6.10
2020,01,14,22,16,-6.10
2020,01,14,22,17,-6.10
2020,01,14,22,18,-6.10
2020,01,14,22,19,-6.10
2020,01,14,22,20,-6.10
2020,01,14,22,21,-6.10
2020,01,14,22,22,-6.10
2020,01,14,22,23,-6.10
2020,01,14,22,24,-6.10
2020,01,14,22,25,-6.10
2020,01,14,22,26,-6.10
2020,01,14,22,27,-6.10
2020,01,14,22,28,-6.10
2020,01,14,22,29,-6.10
2020,01,14,22,30,-6.10
2020,01,14,22,31,-6.10
2020,01,14,22,32,-6.10
2020,01,14,22,33,-6.10
2020,01,14,22,34,-6.10
2020,01,14,22,35,-6.10
2020,01,14,22,36,-6.10
2020,01,14,22,37,-6.10
2020,01,14,22,38,-6.10
2020,01,14,22,39,-6.10